Time,TemperatureF,DewpointF,PressureIn,WindDirection,WindDirectionDegrees,WindSpeedMPH,WindSpeedGustMPH,Humidity,HourlyPrecipIn,Conditions,Clouds,dailyrainin,SolarRadiationWatts/m^2,SoftwareType,DateUTC
2014-08-23 00:01:00,82.5,75.3,29.95,North,360,1.0,2.0,79,0.00,,CLR,0.00,0.00,VWS V14.00,2014-08-23 04:01:00,
2014-08-23 00:06:00,82.5,75.3,29.95,North,360,2.0,2.0,79,0.00,,CLR,0.00,0.00,VWS V14.00,2014-08-23 04:06:00,
2014-08-23 00:11:00,82.5,75.7,29.95,North,360,0.0,2.0,80,0.00,,CLR,0.00,0.00,VWS V14.00,2014-08-23 04:11:00,
2014-08-23 00:16:00,82.4,76.4,29.95,North,360,0.0,0.0,82,0.00,,CLR,0.00,0.00,VWS V14.00,2014-08-23 04:16:00,
2014-08-23 00:21:00,82.3,75.9,29.95,North,360,2.0,2.0,81,0.00,,CLR,0.00,0.00,VWS V14.00,2014-08-23 04:21:00,
2014-08-23 00:26:00,82.2,75.8,29.94,North,360,0.0,1.0,81,0.00,,CLR,0.00,0.00,VWS V14.00,2014-08-23 04:26:00,
2014-08-23 00:31:00,82.0,75.6,29.94,North,360,1.0,1.0,81,0.00,,CLR,0.00,0.00,VWS V14.00,2014-08-23 04:31:00,
2014-08-23 00:36:00,82.0,75.6,29.94,North,360,1.0,1.0,81,0.00,,CLR,0.00,0.00,VWS V14.00,2014-08-23 04:36:00,
2014-08-23 00:41:00,82.0,76.3,29.94,North,360,0.0,1.0,83,0.00,,CLR,0.00,0.00,VWS V14.00,2014-08-23 04:41:00,
2014-08-23 00:46:00,81.9,76.6,29.94,North,360,0.0,1.0,84,0.00,,CLR,0.00,0.00,VWS V14.00,2014-08-23 04:46:00,
2014-08-23 00:51:00,81.8,76.5,29.93,North,360,0.0,0.0,84,0.00,,CLR,0.00,0.00,VWS V14.00,2014-08-23 04:51:00,
2014-08-23 00:56:00,81.6,76.3,29.93,North,360,0.0,0.0,84,0.00,,CLR,0.00,0.00,VWS V14.00,2014-08-23 04:56:00,
2014-08-23 01:01:00,81.3,76.0,29.93,North,360,0.0,1.0,84,0.00,,CLR,0.00,0.00,VWS V14.00,2014-08-23 05:01:00,
2014-08-23 01:07:00,81.1,75.8,29.92,North,360,0.0,1.0,84,0.00,,CLR,0.00,0.00,VWS V14.00,2014-08-23 05:07:00,
2014-08-23 01:12:00,81.0,75.7,29.92,North,360,0.0,1.0,84,0.00,,CLR,0.00,0.00,VWS V14.00,2014-08-23 05:12:00,
2014-08-23 01:17:00,80.9,75.6,29.92,North,360,1.0,1.0,84,0.00,,CLR,0.00,0.00,VWS V14.00,2014-08-23 05:17:00,
2014-08-23 01:22:00,80.8,75.5,29.92,North,360,0.0,1.0,84,0.00,,CLR,0.00,0.00,VWS V14.00,2014-08-23 05:22:00,
2014-08-23 01:27:00,80.7,75.4,29.92,North,360,1.0,1.0,84,0.00,,CLR,0.00,0.00,VWS V14.00,2014-08-23 05:27:00,
2014-08-23 01:32:00,80.6,75.3,29.92,North,360,1.0,1.0,84,0.00,,CLR,0.00,0.00,VWS V14.00,2014-08-23 05:32:00,
2014-08-23 01:37:00,80.7,75.4,29.91,North,360,0.0,1.0,84,0.00,,CLR,0.00,0.00,VWS V14.00,2014-08-23 05:37:00,
2014-08-23 01:42:00,80.7,75.8,29.91,North,360,0.0,1.0,85,0.00,,CLR,0.00,0.00,VWS V14.00,2014-08-23 05:42:00,
2014-08-23 01:47:00,80.7,75.8,29.91,North,360,1.0,1.0,85,0.00,,CLR,0.00,0.00,VWS V14.00,2014-08-23 05:47:00,
2014-08-23 01:52:00,80.6,75.7,29.91,North,360,1.0,1.0,85,0.00,,CLR,0.00,0.00,VWS V14.00,2014-08-23 05:52:00,
2014-08-23 01:57:00,80.6,76.0,29.91,North,360,0.0,0.0,86,0.00,,CLR,0.00,0.00,VWS V14.00,2014-08-23 05:57:00,
2014-08-23 02:02:00,80.5,75.9,29.91,North,360,0.0,1.0,86,0.00,,CLR,0.00,0.00,VWS V14.00,2014-08-23 06:02:00,
2014-08-23 02:07:00,80.6,76.4,29.91,North,360,0.0,1.0,87,0.00,,CLR,0.00,0.00,VWS V14.00,2014-08-23 06:07:00,
2014-08-23 02:12:00,80.5,76.3,29.91,North,360,1.0,2.0,87,0.00,,CLR,0.00,0.00,VWS V14.00,2014-08-23 06:12:00,
2014-08-23 02:17:00,80.3,76.4,29.91,North,360,1.0,1.0,88,0.00,,CLR,0.00,0.00,VWS V14.00,2014-08-23 06:17:00,
2014-08-23 02:22:00,80.0,76.5,29.91,North,360,1.0,1.0,89,0.00,,CLR,0.00,0.00,VWS V14.00,2014-08-23 06:22:00,
2014-08-23 02:27:00,79.8,76.3,29.90,North,360,1.0,1.0,89,0.00,,CLR,0.00,0.00,VWS V14.00,2014-08-23 06:27:00,
2014-08-23 02:32:00,79.5,76.0,29.90,North,360,0.0,1.0,89,0.00,,CLR,0.00,0.00,VWS V14.00,2014-08-23 06:32:00,
2014-08-23 02:37:00,79.3,76.1,29.90,North,360,0.0,1.0,90,0.00,,CLR,0.00,0.00,VWS V14.00,2014-08-23 06:37:00,
2014-08-23 02:42:00,79.2,76.0,29.90,North,360,0.0,0.0,90,0.00,,CLR,0.00,0.00,VWS V14.00,2014-08-23 06:42:00,
2014-08-23 02:47:00,79.2,76.0,29.90,North,360,0.0,0.0,90,0.00,,CLR,0.00,0.00,VWS V14.00,2014-08-23 06:47:00,
2014-08-23 02:52:00,79.1,75.9,29.90,North,360,0.0,1.0,90,0.00,,CLR,0.00,0.00,VWS V14.00,2014-08-23 06:52:00,
2014-08-23 02:57:00,79.0,75.8,29.90,North,360,0.0,0.0,90,0.00,,CLR,0.00,0.00,VWS V14.00,2014-08-23 06:57:00,
2014-08-23 03:02:00,79.0,76.2,29.90,North,360,0.0,0.0,91,0.00,,CLR,0.00,0.00,VWS V14.00,2014-08-23 07:02:00,
2014-08-23 03:07:00,79.1,76.2,29.90,North,360,0.0,1.0,91,0.00,,CLR,0.00,0.00,VWS V14.00,2014-08-23 07:07:00,
2014-08-23 03:12:00,79.1,76.2,29.90,North,360,0.0,0.0,91,0.00,,CLR,0.00,0.00,VWS V14.00,2014-08-23 07:12:00,
2014-08-23 03:17:00,79.1,76.2,29.90,North,360,0.0,1.0,91,0.00,,CLR,0.00,0.00,VWS V14.00,2014-08-23 07:17:00,
2014-08-23 03:22:00,79.1,76.2,29.90,North,360,0.0,1.0,91,0.00,,CLR,0.00,0.00,VWS V14.00,2014-08-23 07:22:00,
2014-08-23 03:27:00,79.1,76.2,29.89,North,360,0.0,1.0,91,0.00,,CLR,0.00,0.00,VWS V14.00,2014-08-23 07:27:00,
2014-08-23 03:32:00,79.0,76.5,29.90,North,360,0.0,1.0,92,0.00,,CLR,0.00,0.00,VWS V14.00,2014-08-23 07:32:00,
2014-08-23 03:37:00,78.9,76.1,29.90,North,360,1.0,1.0,91,0.00,,CLR,0.00,0.00,VWS V14.00,2014-08-23 07:37:00,
2014-08-23 03:43:00,78.9,76.1,29.89,North,360,1.0,2.0,91,0.00,,CLR,0.00,0.00,VWS V14.00,2014-08-23 07:43:00,
2014-08-23 03:48:00,78.8,75.9,29.89,North,360,0.0,1.0,91,0.00,,CLR,0.00,0.00,VWS V14.00,2014-08-23 07:48:00,
2014-08-23 03:53:00,78.8,75.9,29.89,North,360,0.0,0.0,91,0.00,,CLR,0.00,0.00,VWS V14.00,2014-08-23 07:53:00,
2014-08-23 03:58:00,78.8,75.9,29.89,North,360,1.0,1.0,91,0.00,,CLR,0.00,0.00,VWS V14.00,2014-08-23 07:58:00,
2014-08-23 04:03:00,78.8,75.9,29.89,North,360,1.0,1.0,91,0.00,,CLR,0.00,0.00,VWS V14.00,2014-08-23 08:03:00,
2014-08-23 04:08:00,78.7,75.9,29.89,North,360,0.0,1.0,91,0.00,,CLR,0.00,0.00,VWS V14.00,2014-08-23 08:08:00,
2014-08-23 04:13:00,78.7,75.9,29.89,North,360,1.0,2.0,91,0.00,,CLR,0.00,0.00,VWS V14.00,2014-08-23 08:13:00,
2014-08-23 04:18:00,78.7,76.2,29.89,North,360,0.0,1.0,92,0.00,,CLR,0.00,0.00,VWS V14.00,2014-08-23 08:18:00,
2014-08-23 04:23:00,78.6,76.1,29.89,North,360,0.0,1.0,92,0.00,,CLR,0.00,0.00,VWS V14.00,2014-08-23 08:23:00,
2014-08-23 04:28:00,78.6,76.1,29.89,North,360,0.0,0.0,92,0.00,,CLR,0.00,0.00,VWS V14.00,2014-08-23 08:28:00,
2014-08-23 04:33:00,78.6,76.1,29.88,North,360,0.0,0.0,92,0.00,,CLR,0.00,0.00,VWS V14.00,2014-08-23 08:33:00,
2014-08-23 04:38:00,78.6,76.4,29.88,North,360,1.0,1.0,93,0.00,,CLR,0.00,0.00,VWS V14.00,2014-08-23 08:38:00,
2014-08-23 04:43:00,78.6,76.4,29.88,North,360,0.0,0.0,93,0.00,,CLR,0.00,0.00,VWS V14.00,2014-08-23 08:43:00,
2014-08-23 04:48:00,78.6,76.4,29.88,North,360,1.0,1.0,93,0.00,,CLR,0.00,0.00,VWS V14.00,2014-08-23 08:48:00,
2014-08-23 04:53:00,78.5,76.3,29.88,North,360,1.0,2.0,93,0.00,,CLR,0.00,0.00,VWS V14.00,2014-08-23 08:53:00,
2014-08-23 04:58:00,78.5,76.3,29.88,NNE,14,0.0,1.0,93,0.00,,CLR,0.00,0.00,VWS V14.00,2014-08-23 08:58:00,
2014-08-23 05:03:00,78.4,76.2,29.88,NNE,14,0.0,1.0,93,0.00,,CLR,0.00,0.00,VWS V14.00,2014-08-23 09:03:00,
2014-08-23 05:08:00,78.4,76.2,29.88,NNE,14,0.0,1.0,93,0.00,,CLR,0.00,0.00,VWS V14.00,2014-08-23 09:08:00,
2014-08-23 05:13:00,78.4,76.2,29.88,NNE,14,0.0,1.0,93,0.00,,CLR,0.00,0.00,VWS V14.00,2014-08-23 09:13:00,
2014-08-23 05:18:00,78.4,76.2,29.89,NNE,14,0.0,1.0,93,0.00,,CLR,0.00,0.00,VWS V14.00,2014-08-23 09:18:00,
2014-08-23 05:23:00,78.4,76.5,29.88,NNE,14,0.0,1.0,94,0.00,,CLR,0.00,0.00,VWS V14.00,2014-08-23 09:23:00,
2014-08-23 05:28:00,78.3,76.1,29.89,NNE,14,0.0,1.0,93,0.00,,CLR,0.00,0.00,VWS V14.00,2014-08-23 09:28:00,
2014-08-23 05:33:00,78.3,76.4,29.89,NNE,14,1.0,1.0,94,0.00,,CLR,0.00,0.00,VWS V14.00,2014-08-23 09:33:00,
2014-08-23 05:38:00,78.2,76.3,29.89,NNE,14,1.0,1.0,94,0.00,,CLR,0.00,0.00,VWS V14.00,2014-08-23 09:38:00,
2014-08-23 05:43:00,78.2,76.3,29.89,NNE,14,1.0,1.0,94,0.00,,CLR,0.00,0.00,VWS V14.00,2014-08-23 09:43:00,
2014-08-23 05:48:00,78.1,76.2,29.89,NNE,14,1.0,1.0,94,0.00,,CLR,0.00,0.00,VWS V14.00,2014-08-23 09:48:00,
2014-08-23 05:53:00,78.2,76.3,29.89,NNE,14,1.0,1.0,94,0.00,,CLR,0.00,0.00,VWS V14.00,2014-08-23 09:53:00,
2014-08-23 05:58:00,78.1,76.2,29.89,NNE,14,0.0,0.0,94,0.00,,CLR,0.00,0.00,VWS V14.00,2014-08-23 09:58:00,
2014-08-23 06:03:00,78.0,76.1,29.90,NNE,14,1.0,1.0,94,0.00,,CLR,0.00,0.00,VWS V14.00,2014-08-23 10:03:00,
2014-08-23 06:08:00,78.0,76.1,29.90,North,360,1.0,1.0,94,0.00,,CLR,0.00,0.00,VWS V14.00,2014-08-23 10:08:00,
2014-08-23 06:13:00,77.9,76.0,29.90,North,360,0.0,1.0,94,0.00,,CLR,0.00,0.00,VWS V14.00,2014-08-23 10:13:00,
2014-08-23 06:19:00,77.8,75.9,29.90,North,360,0.0,1.0,94,0.00,,CLR,0.00,0.00,VWS V14.00,2014-08-23 10:19:00,
2014-08-23 06:23:00,77.9,76.0,29.90,North,360,1.0,1.0,94,0.00,,CLR,0.00,0.00,VWS V14.00,2014-08-23 10:23:00,
2014-08-23 06:29:00,78.0,76.5,29.90,North,360,1.0,1.0,95,0.00,,CLR,0.00,0.00,VWS V14.00,2014-08-23 10:29:00,
2014-08-23 06:34:00,78.0,76.5,29.90,North,360,1.0,1.0,95,0.00,,CLR,0.00,0.00,VWS V14.00,2014-08-23 10:34:00,
2014-08-23 06:39:00,78.0,76.1,29.90,North,360,1.0,1.0,94,0.00,,CLR,0.00,0.00,VWS V14.00,2014-08-23 10:39:00,
2014-08-23 06:44:00,78.0,76.1,29.90,North,360,1.0,2.0,94,0.00,,CLR,0.00,0.00,VWS V14.00,2014-08-23 10:44:00,
2014-08-23 06:49:00,78.0,76.1,29.90,North,360,0.0,2.0,94,0.00,,CLR,0.00,0.00,VWS V14.00,2014-08-23 10:49:00,
2014-08-23 06:54:00,78.1,76.6,29.90,North,360,1.0,1.0,95,0.00,,CLR,0.00,0.00,VWS V14.00,2014-08-23 10:54:00,
2014-08-23 06:59:00,78.0,76.1,29.90,North,360,1.0,2.0,94,0.00,,CLR,0.00,0.00,VWS V14.00,2014-08-23 10:59:00,
2014-08-23 07:04:00,78.0,76.1,29.90,North,360,1.0,2.0,94,0.00,,CLR,0.00,0.00,VWS V14.00,2014-08-23 11:04:00,
2014-08-23 07:09:00,78.1,76.6,29.90,North,360,1.0,1.0,95,0.00,,CLR,0.00,0.00,VWS V14.00,2014-08-23 11:09:00,
2014-08-23 07:14:00,78.2,76.7,29.90,North,360,1.0,2.0,95,0.00,,CLR,0.00,5.00,VWS V14.00,2014-08-23 11:14:00,
2014-08-23 07:19:00,78.4,76.8,29.90,North,360,2.0,2.0,95,0.00,,CLR,0.00,7.00,VWS V14.00,2014-08-23 11:19:00,
2014-08-23 07:24:00,78.5,76.9,29.91,North,360,1.0,2.0,95,0.00,,CLR,0.00,9.00,VWS V14.00,2014-08-23 11:24:00,
2014-08-23 07:29:00,78.6,77.1,29.91,North,360,1.0,2.0,95,0.00,,CLR,0.00,11.00,VWS V14.00,2014-08-23 11:29:00,
2014-08-23 07:34:00,78.6,77.1,29.91,North,360,1.0,2.0,95,0.00,,CLR,0.00,11.00,VWS V14.00,2014-08-23 11:34:00,
2014-08-23 07:39:00,78.7,77.2,29.91,North,360,1.0,2.0,95,0.00,,CLR,0.00,11.00,VWS V14.00,2014-08-23 11:39:00,
2014-08-23 07:44:00,78.9,77.3,29.91,North,360,2.0,2.0,95,0.00,,CLR,0.00,11.00,VWS V14.00,2014-08-23 11:44:00,
2014-08-23 07:49:00,79.0,77.8,29.91,North,360,2.0,3.0,96,0.00,,CLR,0.00,11.00,VWS V14.00,2014-08-23 11:49:00,
2014-08-23 07:54:00,79.2,78.0,29.91,North,360,2.0,3.0,96,0.00,,CLR,0.00,14.00,VWS V14.00,2014-08-23 11:54:00,
2014-08-23 07:59:00,79.3,78.1,29.91,North,360,2.0,3.0,96,0.00,,CLR,0.00,32.00,VWS V14.00,2014-08-23 11:59:00,
2014-08-23 08:04:00,79.5,78.3,29.91,North,360,2.0,3.0,96,0.00,,CLR,0.00,54.00,VWS V14.00,2014-08-23 12:04:00,
2014-08-23 08:09:00,79.9,78.7,29.91,North,360,6.0,6.0,96,0.00,,CLR,0.00,60.00,VWS V14.00,2014-08-23 12:09:00,
2014-08-23 08:14:00,80.2,78.6,29.91,North,360,2.0,4.0,95,0.00,,CLR,0.00,63.00,VWS V14.00,2014-08-23 12:14:00,
2014-08-23 08:19:00,80.3,78.4,29.91,North,360,1.0,4.0,94,0.00,,CLR,0.00,65.00,VWS V14.00,2014-08-23 12:19:00,
2014-08-23 08:24:00,80.4,78.2,29.91,North,360,3.0,4.0,93,0.00,,CLR,0.00,69.00,VWS V14.00,2014-08-23 12:24:00,
2014-08-23 08:29:00,80.8,78.6,29.91,North,360,2.0,3.0,93,0.00,,CLR,0.00,72.00,VWS V14.00,2014-08-23 12:29:00,
2014-08-23 08:34:00,81.2,78.3,29.91,North,360,2.0,4.0,91,0.00,,CLR,0.00,76.00,VWS V14.00,2014-08-23 12:34:00,
2014-08-23 08:40:00,81.7,78.5,29.91,North,360,4.0,4.0,90,0.00,,CLR,0.00,77.00,VWS V14.00,2014-08-23 12:40:00,
2014-08-23 08:45:00,82.0,78.4,29.91,North,360,2.0,3.0,89,0.00,,CLR,0.00,81.00,VWS V14.00,2014-08-23 12:45:00,
2014-08-23 08:50:00,82.2,78.3,29.91,North,360,2.0,4.0,88,0.00,,CLR,0.00,84.00,VWS V14.00,2014-08-23 12:50:00,
2014-08-23 08:55:00,82.5,77.9,29.91,North,360,5.0,5.0,86,0.00,,CLR,0.00,86.00,VWS V14.00,2014-08-23 12:55:00,
2014-08-23 09:00:00,82.8,77.5,29.91,North,360,4.0,5.0,84,0.00,,CLR,0.00,90.00,VWS V14.00,2014-08-23 13:00:00,
2014-08-23 09:05:00,83.1,77.0,29.91,North,360,2.0,5.0,82,0.00,,CLR,0.00,91.00,VWS V14.00,2014-08-23 13:05:00,
2014-08-23 09:10:00,83.4,77.7,29.91,North,360,2.0,3.0,83,0.00,,CLR,0.00,93.00,VWS V14.00,2014-08-23 13:10:00,
2014-08-23 09:15:00,83.7,78.0,29.91,North,360,2.0,3.0,83,0.00,,CLR,0.00,95.00,VWS V14.00,2014-08-23 13:15:00,
2014-08-23 09:20:00,83.9,77.8,29.91,North,360,3.0,4.0,82,0.00,,CLR,0.00,97.00,VWS V14.00,2014-08-23 13:20:00,
2014-08-23 09:25:00,84.1,78.0,29.91,North,360,2.0,3.0,82,0.00,,CLR,0.00,100.00,VWS V14.00,2014-08-23 13:25:00,
2014-08-23 09:30:00,84.3,76.7,29.91,North,360,3.0,4.0,78,0.00,,CLR,0.00,102.00,VWS V14.00,2014-08-23 13:30:00,
2014-08-23 09:35:00,84.5,77.7,29.91,North,360,3.0,4.0,80,0.00,,CLR,0.00,104.00,VWS V14.00,2014-08-23 13:35:00,
2014-08-23 09:40:00,84.7,77.8,29.91,NE,44,4.0,4.0,80,0.00,,CLR,0.00,105.00,VWS V14.00,2014-08-23 13:40:00,
2014-08-23 09:45:00,85.0,75.8,29.91,North,360,2.0,4.0,74,0.00,,CLR,0.00,109.00,VWS V14.00,2014-08-23 13:45:00,
2014-08-23 09:50:00,85.2,76.4,29.92,North,360,2.0,2.0,75,0.00,,CLR,0.00,113.00,VWS V14.00,2014-08-23 13:50:00,
2014-08-23 09:55:00,85.5,77.1,29.92,North,360,2.0,2.0,76,0.00,,CLR,0.00,118.00,VWS V14.00,2014-08-23 13:55:00,
2014-08-23 10:00:00,85.7,77.3,29.92,North,360,4.0,6.0,76,0.00,,CLR,0.00,127.00,VWS V14.00,2014-08-23 14:00:00,
2014-08-23 10:05:00,85.8,77.0,29.92,NNE,24,1.0,4.0,75,0.00,,CLR,0.00,130.00,VWS V14.00,2014-08-23 14:05:00,
2014-08-23 10:10:00,85.9,76.7,29.92,North,360,3.0,3.0,74,0.00,,CLR,0.00,132.00,VWS V14.00,2014-08-23 14:10:00,
2014-08-23 10:15:00,86.4,75.9,29.92,North,360,5.0,7.0,71,0.00,,CLR,0.00,141.00,VWS V14.00,2014-08-23 14:15:00,
2014-08-23 10:20:00,86.4,76.3,29.92,North,360,2.0,2.0,72,0.00,,CLR,0.00,83.00,VWS V14.00,2014-08-23 14:20:00,
2014-08-23 10:25:00,86.6,76.1,29.92,NNE,30,5.0,7.0,71,0.00,,CLR,0.00,171.00,VWS V14.00,2014-08-23 14:25:00,
2014-08-23 10:30:00,86.6,76.5,29.92,North,360,2.0,7.0,72,0.00,,CLR,0.00,169.00,VWS V14.00,2014-08-23 14:30:00,
2014-08-23 10:35:00,86.6,75.7,29.93,North,360,3.0,5.0,70,0.00,,CLR,0.00,174.00,VWS V14.00,2014-08-23 14:35:00,
2014-08-23 10:40:00,86.6,76.1,29.92,North,360,5.0,5.0,71,0.00,,CLR,0.00,167.00,VWS V14.00,2014-08-23 14:40:00,
2014-08-23 10:45:00,86.7,75.8,29.92,North,360,5.0,7.0,70,0.00,,CLR,0.00,83.00,VWS V14.00,2014-08-23 14:45:00,
2014-08-23 10:50:00,86.7,76.2,29.92,North,360,1.0,3.0,71,0.00,,CLR,0.00,121.00,VWS V14.00,2014-08-23 14:50:00,
2014-08-23 10:55:00,87.1,75.7,29.92,North,360,2.0,6.0,69,0.00,,CLR,0.00,178.00,VWS V14.00,2014-08-23 14:55:00,
2014-08-23 11:00:00,87.4,75.6,29.92,North,360,2.0,6.0,68,0.00,,CLR,0.00,165.00,VWS V14.00,2014-08-23 15:00:00,
2014-08-23 11:05:00,87.5,75.6,29.92,North,360,3.0,3.0,68,0.00,,CLR,0.00,69.00,VWS V14.00,2014-08-23 15:05:00,
2014-08-23 11:10:00,87.2,75.4,29.92,North,9,3.0,5.0,68,0.00,,CLR,0.00,74.00,VWS V14.00,2014-08-23 15:10:00,
2014-08-23 11:15:00,87.0,75.2,29.92,North,360,5.0,6.0,68,0.00,,CLR,0.00,76.00,VWS V14.00,2014-08-23 15:15:00,
2014-08-23 11:20:00,87.0,75.6,29.92,North,360,2.0,4.0,69,0.00,,CLR,0.00,185.00,VWS V14.00,2014-08-23 15:20:00,
2014-08-23 11:25:00,87.3,75.4,29.92,NNE,30,1.0,2.0,68,0.00,,CLR,0.00,86.00,VWS V14.00,2014-08-23 15:25:00,
2014-08-23 11:30:00,87.6,76.2,29.91,North,360,5.0,6.0,69,0.00,,CLR,0.00,100.00,VWS V14.00,2014-08-23 15:30:00,
2014-08-23 11:35:00,87.5,74.8,29.91,NE,36,3.0,5.0,66,0.00,,CLR,0.00,105.00,VWS V14.00,2014-08-23 15:35:00,
2014-08-23 11:40:00,87.6,75.3,29.91,North,360,5.0,5.0,67,0.00,,CLR,0.00,197.00,VWS V14.00,2014-08-23 15:40:00,
2014-08-23 11:45:00,87.8,75.5,29.91,NNE,26,5.0,6.0,67,0.00,,CLR,0.00,174.00,VWS V14.00,2014-08-23 15:45:00,
2014-08-23 11:50:00,87.8,75.9,29.91,North,360,4.0,9.0,68,0.00,,CLR,0.00,77.00,VWS V14.00,2014-08-23 15:50:00,
2014-08-23 11:55:00,87.4,75.1,29.91,North,360,2.0,7.0,67,0.00,,CLR,0.00,56.00,VWS V14.00,2014-08-23 15:55:00,
2014-08-23 12:01:00,87.1,75.3,29.91,North,360,4.0,9.0,68,0.00,,CLR,0.00,44.00,VWS V14.00,2014-08-23 16:01:00,
2014-08-23 12:06:00,86.7,77.0,29.92,North,360,12.0,12.0,73,0.00,,CLR,0.00,40.00,VWS V14.00,2014-08-23 16:06:00,
2014-08-23 12:11:00,83.7,77.2,29.92,North,360,5.0,10.0,81,0.33,,CLR,0.02,39.00,VWS V14.00,2014-08-23 16:11:00,
2014-08-23 12:16:00,82.3,77.7,29.92,North,360,3.0,5.0,86,0.17,,CLR,0.03,44.00,VWS V14.00,2014-08-23 16:16:00,
2014-08-23 12:21:00,81.6,77.0,29.91,North,360,3.0,5.0,86,0.07,,CLR,0.03,47.00,VWS V14.00,2014-08-23 16:21:00,
2014-08-23 12:26:00,81.3,76.0,29.91,North,360,2.0,4.0,84,0.04,,CLR,0.03,111.00,VWS V14.00,2014-08-23 16:26:00,
2014-08-23 12:31:00,81.8,76.8,29.91,North,360,3.0,4.0,85,0.00,,CLR,0.03,153.00,VWS V14.00,2014-08-23 16:31:00,
2014-08-23 12:36:00,82.9,77.6,29.91,North,360,1.0,2.0,84,0.00,,CLR,0.03,158.00,VWS V14.00,2014-08-23 16:36:00,
2014-08-23 12:41:00,84.2,75.8,29.91,North,360,0.0,2.0,76,0.00,,CLR,0.03,171.00,VWS V14.00,2014-08-23 16:41:00,
2014-08-23 12:46:00,85.0,77.0,29.91,NE,43,2.0,2.0,77,0.00,,CLR,0.03,176.00,VWS V14.00,2014-08-23 16:46:00,
2014-08-23 12:51:00,85.9,77.1,29.91,North,360,3.0,4.0,75,0.00,,CLR,0.03,178.00,VWS V14.00,2014-08-23 16:51:00,
2014-08-23 12:56:00,86.6,77.7,29.91,North,360,4.0,4.0,75,0.00,,CLR,0.03,178.00,VWS V14.00,2014-08-23 16:56:00,
2014-08-23 13:01:00,87.0,77.3,29.90,North,360,1.0,2.0,73,0.00,,CLR,0.03,181.00,VWS V14.00,2014-08-23 17:01:00,
2014-08-23 13:06:00,87.8,77.7,29.90,North,360,4.0,9.0,72,0.00,,CLR,0.03,190.00,VWS V14.00,2014-08-23 17:06:00,
2014-08-23 13:11:00,87.9,76.5,29.90,North,360,7.0,7.0,69,0.00,,CLR,0.03,211.00,VWS V14.00,2014-08-23 17:11:00,
2014-08-23 13:16:00,88.1,77.1,29.90,NE,49,6.0,7.0,70,0.00,,CLR,0.03,76.00,VWS V14.00,2014-08-23 17:16:00,
2014-08-23 13:21:00,88.0,76.6,29.90,North,360,9.0,9.0,69,0.00,,CLR,0.03,195.00,VWS V14.00,2014-08-23 17:21:00,
2014-08-23 13:26:00,88.5,76.6,29.90,North,360,3.0,5.0,68,0.00,,CLR,0.03,188.00,VWS V14.00,2014-08-23 17:26:00,
2014-08-23 13:31:00,88.7,74.5,29.90,North,360,2.0,6.0,63,0.00,,CLR,0.03,62.00,VWS V14.00,2014-08-23 17:31:00,
2014-08-23 13:36:00,88.8,76.0,29.90,NNE,13,3.0,6.0,66,0.00,,CLR,0.03,199.00,VWS V14.00,2014-08-23 17:36:00,
2014-08-23 13:41:00,89.1,75.8,29.90,NE,46,4.0,4.0,65,0.00,,CLR,0.03,207.00,VWS V14.00,2014-08-23 17:41:00,
2014-08-23 13:46:00,89.3,75.1,29.90,North,360,1.0,3.0,63,0.00,,CLR,0.03,225.00,VWS V14.00,2014-08-23 17:46:00,
2014-08-23 13:51:00,89.2,74.5,29.89,North,360,2.0,3.0,62,0.00,,CLR,0.03,88.00,VWS V14.00,2014-08-23 17:51:00,
2014-08-23 13:56:00,89.0,75.2,29.89,NE,42,5.0,7.0,64,0.00,,CLR,0.03,97.00,VWS V14.00,2014-08-23 17:56:00,
2014-08-23 14:01:00,88.9,74.7,29.89,North,360,4.0,4.0,63,0.00,,CLR,0.03,211.00,VWS V14.00,2014-08-23 18:01:00,
2014-08-23 14:07:00,89.1,74.9,29.88,NNE,29,0.0,4.0,63,0.00,,CLR,0.03,243.00,VWS V14.00,2014-08-23 18:07:00,
2014-08-23 14:12:00,89.1,75.3,29.88,NNE,30,2.0,3.0,64,0.00,,CLR,0.03,76.00,VWS V14.00,2014-08-23 18:12:00,
2014-08-23 14:17:00,89.1,75.3,29.88,North,9,1.0,3.0,64,0.00,,CLR,0.03,72.00,VWS V14.00,2014-08-23 18:17:00,
2014-08-23 14:22:00,89.0,75.2,29.88,NNE,13,6.0,7.0,64,0.00,,CLR,0.03,90.00,VWS V14.00,2014-08-23 18:22:00,
2014-08-23 14:27:00,88.8,75.1,29.88,NNE,28,5.0,5.0,64,0.00,,CLR,0.03,97.00,VWS V14.00,2014-08-23 18:27:00,
2014-08-23 14:32:00,88.7,75.4,29.88,ENE,59,3.0,6.0,65,0.00,,CLR,0.03,91.00,VWS V14.00,2014-08-23 18:32:00,
2014-08-23 14:37:00,88.7,75.9,29.88,NE,51,6.0,7.0,66,0.00,,CLR,0.03,176.00,VWS V14.00,2014-08-23 18:37:00,
2014-08-23 14:42:00,88.8,76.0,29.87,North,360,6.0,8.0,66,0.00,,CLR,0.03,111.00,VWS V14.00,2014-08-23 18:42:00,
2014-08-23 14:47:00,89.1,76.3,29.87,ENE,57,4.0,6.0,66,0.00,,CLR,0.03,230.00,VWS V14.00,2014-08-23 18:47:00,
2014-08-23 14:52:00,90.1,75.8,29.87,ENE,57,5.0,6.0,63,0.00,,CLR,0.03,220.00,VWS V14.00,2014-08-23 18:52:00,
2014-08-23 14:57:00,89.7,75.0,29.87,NNE,17,4.0,7.0,62,0.00,,CLR,0.03,223.00,VWS V14.00,2014-08-23 18:57:00,
2014-08-23 15:02:00,89.6,75.8,29.86,NE,42,5.0,6.0,64,0.00,,CLR,0.03,230.00,VWS V14.00,2014-08-23 19:02:00,
2014-08-23 15:07:00,89.5,75.7,29.86,North,360,10.0,12.0,64,0.00,,CLR,0.03,93.00,VWS V14.00,2014-08-23 19:07:00,
2014-08-23 15:12:00,89.5,75.7,29.86,North,360,10.0,12.0,64,0.00,,CLR,0.03,134.00,VWS V14.00,2014-08-23 19:12:00,
2014-08-23 15:17:00,89.1,74.9,29.85,NE,50,5.0,10.0,63,0.00,,CLR,0.03,121.00,VWS V14.00,2014-08-23 19:17:00,
2014-08-23 15:22:00,89.2,75.9,29.85,North,360,6.0,11.0,65,0.00,,CLR,0.03,214.00,VWS V14.00,2014-08-23 19:22:00,
2014-08-23 15:27:00,90.0,76.7,29.85,NE,49,5.0,10.0,65,0.00,,CLR,0.03,213.00,VWS V14.00,2014-08-23 19:27:00,
2014-08-23 15:32:00,90.1,76.8,29.85,ENE,61,9.0,10.0,65,0.00,,CLR,0.03,209.00,VWS V14.00,2014-08-23 19:32:00,
2014-08-23 15:37:00,89.9,76.1,29.85,NE,41,9.0,10.0,64,0.00,,CLR,0.03,214.00,VWS V14.00,2014-08-23 19:37:00,
2014-08-23 15:42:00,89.7,75.4,29.85,North,360,8.0,12.0,63,0.00,,CLR,0.03,223.00,VWS V14.00,2014-08-23 19:42:00,
2014-08-23 15:47:00,89.9,75.1,29.85,ENE,57,7.0,15.0,62,0.00,,CLR,0.03,234.00,VWS V14.00,2014-08-23 19:47:00,
2014-08-23 15:52:00,89.3,76.0,29.85,NE,56,8.0,13.0,65,0.00,,CLR,0.03,221.00,VWS V14.00,2014-08-23 19:52:00,
2014-08-23 15:57:00,89.0,74.3,29.85,NE,34,10.0,12.0,62,0.00,,CLR,0.03,207.00,VWS V14.00,2014-08-23 19:57:00,
2014-08-23 16:02:00,88.9,74.7,29.84,North,360,6.0,7.0,63,0.00,,CLR,0.03,200.00,VWS V14.00,2014-08-23 20:02:00,
2014-08-23 16:07:00,89.6,75.3,29.84,North,360,8.0,12.0,63,0.00,,CLR,0.03,199.00,VWS V14.00,2014-08-23 20:07:00,
2014-08-23 16:12:00,89.2,74.5,29.84,North,360,11.0,11.0,62,0.00,,CLR,0.03,195.00,VWS V14.00,2014-08-23 20:12:00,
2014-08-23 16:17:00,89.0,75.2,29.84,North,360,9.0,10.0,64,0.00,,CLR,0.03,193.00,VWS V14.00,2014-08-23 20:17:00,
2014-08-23 16:22:00,89.2,74.5,29.83,North,360,7.0,9.0,62,0.00,,CLR,0.03,193.00,VWS V14.00,2014-08-23 20:22:00,
2014-08-23 16:28:00,90.0,74.8,29.83,North,360,6.0,6.0,61,0.00,,CLR,0.03,197.00,VWS V14.00,2014-08-23 20:28:00,
2014-08-23 16:32:00,89.7,74.0,29.83,North,360,8.0,12.0,60,0.00,,CLR,0.03,202.00,VWS V14.00,2014-08-23 20:32:00,
2014-08-23 16:38:00,89.2,74.0,29.83,NE,46,4.0,11.0,61,0.00,,CLR,0.03,213.00,VWS V14.00,2014-08-23 20:38:00,
2014-08-23 16:43:00,89.1,73.9,29.82,ENE,57,5.0,13.0,61,0.00,,CLR,0.03,223.00,VWS V14.00,2014-08-23 20:43:00,
2014-08-23 16:48:00,89.0,74.8,29.82,North,360,10.0,12.0,63,0.00,,CLR,0.03,230.00,VWS V14.00,2014-08-23 20:48:00,
2014-08-23 16:53:00,89.6,73.9,29.82,NE,51,11.0,12.0,60,0.00,,CLR,0.03,241.00,VWS V14.00,2014-08-23 20:53:00,
2014-08-23 16:58:00,89.3,73.6,29.82,North,360,5.0,9.0,60,0.00,,CLR,0.03,257.00,VWS V14.00,2014-08-23 20:58:00,
2014-08-23 17:03:00,89.4,73.7,29.82,ENE,64,9.0,13.0,60,0.00,,CLR,0.03,267.00,VWS V14.00,2014-08-23 21:03:00,